Vorticity
2 6 4 2 -2 0 6 23 -14 10 13 5 15 3 5 2 11 -12 24 9 4 2 3 3 2 -0 0 1 -2 4 11 9 9 8 8 8 9 9 7 7 7 6 6 6 6 6 6 7 8
3 7 3 11 -4 -2 20 5 14 6 14 -1 -8 13 8 -1 7 9 12 12 3 1 2 4 3 -1 0 0 -1 -1 -1 11 10 8 7 7 8 8 9 8 7 7 7 6 6 6 6 6 5
4 7 3 -1 -1 8 7 13 4 3 8 6 1 10 3 5 6 8 10 5 3 2 1 4 2 1 2 -0 -2 -0 -1 -1 8 10 8 6 5 6 7 7 9 9 9 8 8 8 8 8 9
6 17 9 -5 17 3 0 37 12 -3 2 8 16 -4 5 1 -4 -1 9 6 7 1 2 4 4 2 1 -1 0 -1 1 -0 -1 5 6 10 6 5 4 5 7 7 8 8 8 8 8 7 7
-12 9 5 12 9 -0 -27 23 9 11 8 7 17 19 7 11 -2 -2 -5 9 7 7 3 3 2 2 2 -1 -0 -1 0 1 -2 2 5 7 8 9 6 5 5 5 4 4 4 3 4 4 5
-22 -2 8 9 3 2 8 -6 4 15 12 19 15 4 12 11 17 3 -4 -5 -3 11 7 4 4 1 2 2 -0 0 2 -1 0 -5 4 0 4 6 5 8 7 4 4 4 4 4 5 6 6
44 -21 -1 8 12 3 -14 2 13 2 13 6 4 6 10 7 4 7 20 12 6 6 10 8 6 2 3 3 2 1 3 2 2 -5 1 4 -1 8 6 1 3 6 6 4 3 3 3 3 3
-7 24 -35 5 4 13 8 -2 -5 16 4 2 7 20 -0 9 13 10 13 13 12 9 6 13 8 4 3 3 4 3 3 6 1 1 -2 0 5 -0 4 7 0 1 2 2 3 3 2 2 2
25 -13 31 -9 10 -13 10 10 7 7 11 -3 1 10 15 14 7 4 4 6 13 11 10 10 9 6 4 5 5 5 5 4 4 3 2 1 -0 -0 4 2 2 3 0 1 0 1 1 1 1
-9 -7 28 -16 10 -8 2 11 15 -7 14 -2 -9 7 10 4 6 10 2 4 6 5 6 7 8 9 9 8 7 7 7 6 6 5 4 2 2 2 2 3 2 3 2 2 2 2 1 1 1
1 6 3 0 4 22 -16 16 3 2 13 12 10 -4 6 8 6 7 2 5 6 3 5 6 7 6 6 6 6 7 7 7 6 6 6 5 5 4 4 4 4 4 4 4 3 4 3 3 2
21 -2 8 -13 25 24 -15 -36 7 7 -11 19 4 -7 9 7 6 7 6 4 2 4 2 3 7 10 9 9 6 5 8 9 8 6 6 6 6 5 4 4 5 5 4 4 4 4 4 4 3
7 9 12 -1 7 32 2 10 6 11 12 6 21 -0 6 1 6 7 6 2 2 4 6 7 3 3 4 6 8 8 7 6 5 5 6 6 5 4 3 3 1 3 4 6 6 6 6 5 4
10 -4 26 -0 6 11 7 18 -13 -10 0 21 17 12 3 4 2 0 2 2 2 2 5 2 2 2 1 3 3 6 8 8 8 7 6 6 6 6 6 7 7 7 6 5 4 6 8 9 8
4 -10 10 16 1 15 6 17 30 3 5 13 23 16 8 6 7 9 2 0 0 4 1 1 1 2 2 2 2 8 9 7 7 6 6 6 6 6 5 5 5 6 6 4 4 5 3 5 7
12 28 5 4 25 11 -4 9 10 -9 -6 3 2 3 2 9 5 4 12 14 6 3 1 0 1 3 2 1 5 7 7 6 5 5 7 6 4 7 5 3 2 5 8 10 11 9 7 8 2
2 39 -6 4 13 -2 3 6 -12 -0 -19 -6 1 3 -3 -2 2 0 2 7 8 8 6 6 5 5 3 3 5 6 4 4 4 3 4 5 4 4 3 2 4 6 7 6 7 8 10 10 10
2 7 12 -5 10 3 8 -1 1 12 -11 27 0 2 7 10 9 7 6 6 8 7 7 7 7 8 8 6 4 5 6 7 6 6 4 4 5 3 6 6 3 3 8 8 6 5 5 6 7
8 -5 11 0 16 19 0 -1 6 6 22 11 15 15 4 3 2 10 9 1 3 2 0 3 5 6 5 5 4 4 6 9 7 3 4 6 2 2 3 1 -0 5 4 5 6 6 4 5 4
19 3 20 10 -13 18 8 6 19 -4 3 7 5 9 15 16 13 7 3 5 6 3 3 5 6 6 8 6 5 4 4 7 8 9 8 7 7 6 6 7 8 5 7 7 6 5 7 6 5
19 6 3 7 20 7 -2 17 8 16 3 6 2 -0 2 7 5 6 10 9 8 10 9 9 11 11 8 7 7 6 6 7 8 9 10 11 10 10 10 7 9 10 10 7 8 10 11 9 7
-0 12 12 17 1 -10 4 7 41 20 17 5 -2 3 4 0 8 4 4 6 5 6 8 8 8 7 9 9 10 10 9 8 8 8 8 9 9 9 9 8 8 7 5 5 6 7 8 9 8
21 -11 -6 36 17 3 17 -6 38 10 12 21 9 8 10 13 5 5 9 9 7 6 5 5 7 9 10 10 10 10 10 10 9 9 11 13 14 14 14 14 15 15 13 13 10 12 4 12 12
5 7 32 16 6 8 -8 -14 25 12 10 -7 28 14 7 3 4 7 8 9 9 9 8 9 11 12 10 9 9 8 9 9 8 6 5 6 7 8 7 7 6 6 7 12 11 9 13 9 7
16 8 1 3 11 8 39 23 -24 24 22 27 5 18 18 13 13 14 15 15 15 15 14 13 12 10 9 7 6 6 7 9 10 9 8 7 6 5 6 7 8 8 10 13 -1 4 5 5 7
9 -17 -14 8 8 3 11 10 -3 32 -6 -4 16 12 10 10 12 17 17 15 14 14 12 11 11 11 10 9 9 9 9 7 6 7 8 9 10 11 11 9 10 10 10 10 10 8 7 8 8
19 -4 1 2 8 4 5 33 2 11 11 21 5 9 11 15 15 14 11 10 9 8 8 8 8 7 7 6 6 7 8 9 10 11 10 9 9 10 12 13 15 13 9 8 9 10 11 12 13
13 -4 6 6 6 8 20 17 -30 30 9 19 6 1 2 4 5 9 9 7 5 5 5 6 7 7 8 9 10 10 10 10 11 14 16 16 15 14 13 12 11 12 12 12 12 11 11 12 15
5 10 -15 -6 -8 7 7 15 12 32 -4 24 18 10 9 8 13 9 5 6 6 7 6 7 7 9 9 11 12 10 9 11 11 10 11 10 9 10 6 9 12 10 9 10 11 12 14 12 10
9 11 3 -33 24 -3 -1 4 16 11 22 6 13 14 6 6 6 9 6 6 7 8 11 13 12 14 15 14 9 9 9 8 8 8 10 12 9 5 8 13 9 11 13 15 14 13 11 10 12
Height
3151 3154 3157 3160 3166 3163 3162 3164 3165 3167 3169 3170 3172 3174 3175 3176 3178 3184 3184 3185 3187 3190 3192 3193 3196 3197 3198 3198 3199 3200 3199 3198 3196 3194 3193 3192 3191 3190 3189 3188 3188 3187 3187 3186 3186 3186 3186 3186 3186
3149 3154 3157 3157 3160 3159 3160 3162 3163 3165 3168 3168 3171 3172 3174 3175 3176 3179 3183 3185 3187 3189 3192 3193 3195 3197 3199 3200 3200 3200 3200 3199 3198 3196 3195 3194 3193 3192 3191 3190 3189 3189 3189 3188 3188 3188 3188 3188 3188
3148 3152 3155 3155 3155 3156 3158 3160 3161 3165 3167 3168 3169 3171 3173 3174 3175 3179 3182 3185 3187 3189 3192 3193 3195 3197 3198 3200 3200 3200 3200 3200 3199 3198 3196 3195 3195 3194 3193 3192 3191 3191 3191 3191 3190 3190 3190 3190 3190
3146 3150 3152 3150 3151 3155 3157 3157 3161 3163 3164 3166 3167 3169 3171 3173 3175 3179 3182 3184 3186 3188 3191 3193 3195 3197 3198 3199 3200 3200 3200 3199 3199 3199 3199 3198 3197 3196 3195 3195 3194 3193 3193 3193 3192 3192 3192 3192 3191
3143 3145 3147 3146 3149 3151 3153 3157 3160 3162 3163 3163 3164 3166 3168 3170 3173 3178 3181 3184 3186 3188 3189 3191 3194 3196 3197 3199 3199 3200 3200 3199 3199 3199 3200 3200 3200 3199 3199 3198 3197 3196 3195 3195 3194 3194 3193 3193 3193
3138 3142 3142 3143 3146 3149 3153 3155 3157 3160 3161 3161 3163 3164 3166 3168 3172 3176 3180 3182 3184 3186 3188 3190 3192 3194 3196 3197 3199 3200 3200 3200 3199 3199 3200 3201 3201 3201 3200 3200 3199 3199 3198 3198 3197 3196 3195 3195 3194
3131 3137 3137 3140 3142 3146 3150 3152 3155 3159 3160 3160 3161 3162 3165 3167 3170 3173 3177 3180 3182 3184 3186 3189 3191 3192 3195 3196 3198 3199 3199 3200 3200 3199 3200 3200 3200 3201 3200 3200 3200 3199 3199 3199 3199 3198 3197 3197 3196
3128 3135 3134 3138 3140 3143 3148 3150 3153 3158 3158 3158 3160 3161 3163 3164 3168 3170 3174 3177 3180 3181 3184 3186 3189 3191 3193 3195 3197 3198 3198 3199 3200 3200 3200 3200 3200 3200 3201 3200 3200 3199 3199 3198 3198 3198 3197 3197 3196
3119 3125 3127 3133 3139 3141 3146 3147 3150 3153 3156 3157 3159 3161 3163 3164 3167 3169 3172 3176 3178 3180 3182 3185 3187 3189 3191 3193 3195 3196 3197 3198 3199 3200 3200 3200 3200 3200 3200 3200 3200 3199 3199 3198 3198 3197 3196 3196 3195
3110 3116 3117 3131 3139 3139 3142 3144 3146 3150 3154 3155 3157 3159 3161 3163 3166 3169 3172 3175 3177 3179 3181 3183 3186 3187 3189 3190 3192 3194 3195 3196 3197 3198 3198 3199 3199 3199 3198 3199 3198 3198 3198 3197 3196 3196 3195 3194 3194
3109 3108 3118 3126 3131 3135 3141 3140 3141 3146 3149 3153 3156 3158 3160 3162 3164 3167 3170 3173 3176 3178 3180 3182 3184 3186 3187 3189 3190 3191 3192 3193 3194 3194 3195 3196 3196 3196 3196 3197 3196 3196 3195 3195 3194 3194 3194 3193 3192
3107 3110 3118 3124 3127 3134 3137 3138 3140 3142 3145 3152 3155 3156 3159 3161 3163 3166 3168 3171 3174 3176 3178 3180 3182 3183 3184 3186 3187 3189 3190 3190 3191 3191 3192 3192 3193 3194 3194 3194 3193 3193 3193 3192 3192 3191 3190 3190 3189
3104 3109 3115 3119 3124 3127 3131 3133 3137 3138 3142 3148 3151 3153 3156 3160 3162 3164 3166 3168 3171 3173 3176 3178 3180 3181 3182 3183 3185 3186 3186 3187 3187 3188 3188 3189 3190 3190 3190 3190 3190 3190 3189 3189 3188 3187 3186 3186 3185
3102 3110 3112 3116 3123 3126 3130 3131 3132 3137 3142 3145 3147 3150 3153 3157 3160 3162 3164 3167 3169 3170 3172 3174 3177 3178 3180 3181 3182 3182 3183 3183 3184 3184 3185 3185 3186 3187 3187 3187 3187 3186 3185 3184 3184 3183 3183 3182 3181
3103 3108 3111 3114 3120 3124 3127 3129 3131 3136 3139 3143 3145 3147 3150 3153 3156 3160 3161 3164 3165 3167 3168 3169 3172 3174 3176 3176 3177 3178 3178 3179 3179 3180 3181 3181 3182 3182 3182 3182 3182 3181 3180 3180 3179 3179 3179 3178 3176
3100 3105 3108 3111 3117 3122 3125 3124 3129 3131 3134 3140 3143 3145 3146 3149 3152 3155 3157 3160 3162 3163 3166 3166 3168 3169 3170 3171 3172 3173 3173 3174 3175 3176 3177 3177 3177 3176 3176 3177 3176 3176 3175 3174 3173 3173 3172 3172 3171
3097 3098 3101 3108 3113 3117 3117 3118 3126 3131 3131 3135 3139 3143 3144 3146 3149 3150 3152 3153 3155 3159 3161 3163 3164 3165 3166 3167 3167 3167 3168 3169 3169 3169 3171 3172 3171 3170 3170 3170 3170 3169 3168 3168 3167 3166 3165 3165 3164
3085 3093 3099 3104 3107 3112 3113 3116 3123 3127 3129 3132 3136 3138 3140 3142 3146 3146 3146 3147 3149 3152 3155 3157 3159 3161 3161 3161 3161 3162 3162 3163 3163 3164 3164 3165 3165 3165 3164 3163 3163 3163 3161 3161 3161 3159 3158 3158 3158
3088 3093 3098 3102 3106 3110 3110 3114 3120 3123 3124 3127 3129 3132 3134 3137 3139 3140 3141 3143 3145 3147 3148 3149 3151 3153 3154 3154 3155 3156 3156 3157 3157 3157 3158 3158 3158 3157 3157 3156 3155 3155 3154 3154 3154 3152 3152 3150 3150
3090 3094 3098 3103 3107 3109 3110 3110 3114 3117 3118 3122 3125 3126 3129 3131 3132 3134 3136 3138 3140 3142 3143 3143 3144 3145 3146 3147 3147 3147 3147 3150 3150 3151 3151 3151 3150 3150 3149 3149 3147 3146 3145 3145 3145 3145 3144 3143 3143
3089 3091 3097 3101 3103 3106 3107 3106 3107 3108 3111 3115 3117 3121 3124 3125 3126 3128 3130 3133 3135 3137 3137 3139 3140 3139 3138 3138 3139 3139 3139 3140 3140 3141 3142 3142 3141 3140 3139 3138 3137 3137 3137 3136 3136 3136 3135 3134 3134
3086 3092 3096 3098 3101 3103 3104 3102 3100 3103 3105 3108 3110 3113 3116 3118 3120 3123 3125 3127 3129 3131 3131 3132 3133 3133 3133 3133 3133 3132 3132 3132 3132 3132 3132 3133 3133 3132 3131 3131 3130 3128 3128 3127 3127 3126 3126 3126 3125
3088 3091 3093 3095 3098 3101 3102 3104 3093 3098 3097 3099 3103 3106 3110 3112 3114 3116 3118 3120 3122 3124 3124 3125 3125 3126 3126 3126 3127 3126 3126 3125 3126 3125 3125 3125 3125 3124 3124 3123 3123 3122 3120 3119 3118 3118 3117 3116 3115
3087 3089 3092 3096 3099 3100 3097 3100 3088 3089 3091 3094 3096 3099 3102 3105 3107 3108 3111 3113 3116 3117 3116 3117 3117 3118 3119 3119 3120 3119 3119 3118 3119 3119 3118 3118 3117 3117 3117 3116 3116 3115 3113 3111 3109 3109 3108 3107 3106
3084 3088 3093 3099 3100 3093 3092 3096 3081 3085 3087 3088 3092 3094 3097 3099 3100 3102 3104 3105 3107 3108 3109 3110 3111 3112 3112 3112 3112 3112 3111 3111 3111 3110 3110 3109 3108 3108 3109 3109 3109 3107 3106 3104 3102 3101 3099 3097 3096
3081 3084 3084 3092 3093 3088 3090 3085 3076 3079 3084 3084 3086 3089 3092 3093 3095 3097 3098 3099 3101 3102 3103 3104 3104 3105 3105 3105 3104 3104 3104 3103 3102 3102 3102 3101 3100 3099 3098 3098 3099 3098 3098 3096 3094 3093 3091 3089 3087
3078 3080 3083 3083 3086 3087 3082 3075 3073 3075 3077 3079 3081 3083 3086 3088 3090 3092 3093 3095 3096 3097 3097 3097 3097 3097 3097 3098 3098 3097 3095 3095 3094 3093 3093 3092 3090 3090 3089 3089 3089 3088 3086 3085 3085 3084 3082 3080 3078
3073 3077 3082 3082 3087 3087 3075 3071 3066 3067 3071 3073 3075 3078 3082 3084 3086 3088 3088 3089 3090 3091 3091 3091 3091 3091 3090 3090 3090 3089 3088 3087 3086 3085 3085 3083 3081 3081 3080 3081 3080 3079 3078 3077 3076 3075 3074 3073 3070
3070 3071 3075 3078 3079 3078 3077 3067 3064 3065 3067 3069 3071 3076 3078 3080 3083 3084 3084 3085 3086 3086 3085 3084 3083 3083 3083 3083 3082 3082 3081 3080 3079 3078 3077 3076 3075 3074 3073 3073 3072 3071 3070 3069 3068 3067 3066 3065 3063
3066 3068 3070 3071 3074 3074 3073 3066 3064 3063 3063 3066 3069 3072 3074 3077 3079 3079 3080 3080 3080 3079 3078 3076 3075 3075 3076 3075 3075 3074 3074 3073 3072 3071 3070 3070 3069 3068 3066 3066 3065 3064 3063 3063 3061 3060 3059 3058 3056